Location: Putah Creek Observatory
(38.7021°N, 122.3865°W)
Time: 08:26:32
(UTC-07:00)

Cosmos 1743 - Pass Details

Date: 27 May 2018
Orbit: 511 x 529 km, 82.5° (Epoch: 18 September)

Event Time Altitude Azimuth Distance (km) Brightness Sun altitude
Rises 21:20:41 0° 350° (N) 2,637 7.1 -9.9°
Reaches altitude 10° 21:22:50 10° 348° (NNW) 1,744 6.2 -10.2°
Maximum altitude 21:26:38 71° 265° (W) 546 2.9 -10.8°
Drops below altitude 10° 21:30:24 10° 181° (S) 1,725 5.0 -11.4°
Enters shadow 21:31:11 - 180° (S) 2,053 5.4 -11.5°
